This demonstration page uses our WeatherBlox Daily Observations layout. Learn more.

Left ArrowRight Arrow

38.89511, -77.03637

Hourly Observations for November 10, 2015

Temp ( °F °C ) Dew Point ( °F °C ) Humidity (%) Winds ( mph kmh ) Pressure ( in mb ) Visibility ( mi km ) Precip ( " mm )
12:04 am 00:04 Cloudy with Light Rain 52 11 52 11 100 100 N 6 9 30.18 1022 5 8 0.00 0.00
12:52 am 00:52 Cloudy with Light Rain 52 11.1 51 10.6 97 97 N 9 15 30.16 1021 6 10 0.09 2.29
1:52 am 01:52 Cloudy with Light Rain 53 11.7 52 11.1 96 96 N 8 13 30.14 1021 10 16 0.03 0.76
2:34 am 02:34 Cloudy with Light Rain 54 12 52 11 94 94 N 13 20 30.12 1020 10 16 0.00 0.00
2:52 am 02:52 Cloudy with Light Rain 53 11.7 52 11.1 96 96 NNE 12 19 30.11 1020 10 16 0.00 0.03
3:52 am 03:52 Cloudy with Light Rain 54 12.2 52 11.1 93 93 NNE 12 19 30.08 1019 4 6 0.00 0.03
3:59 am 03:59 Cloudy with Light Rain 54 12.2 52 11.1 93 93 NNE 12 19 30.06 1018 5 8 0.01 0.25
4:52 am 04:52 Cloudy with Light Rain 55 12.8 54 12.2 96 96 NE 10 17 30.04 1017 4 6 0.01 0.25
5:17 am 05:17 Cloudy with Drizzle 55 12.8 54 12.2 96 96 NNE 9 15 30.03 1017 5 8 0.01 0.25
5:52 am 05:52 Cloudy with Drizzle 56 13.3 55 12.8 97 97 NNE 12 19 30.03 1017 6 10 0.01 0.25
6:37 am 06:37 Cloudy with Drizzle 57 13.9 56 13.3 96 96 NNE 13 20 30.00 1016 2 3 0.00 0.03
6:47 am 06:47 Cloudy with Drizzle 57 14 55 13 94 94 NNE 12 19 30.00 1016 2 3 0.00 0.03
6:52 am 06:52 Cloudy with Drizzle 57 13.9 56 13.3 96 96 N 10 17 30.01 1016 2 3 0.00 0.03
7:30 am 07:30 Cloudy with Light Rain 57 14 55 13 94 94 N 10 17 30.00 1016 1 2 0.00 0.00
7:46 am 07:46 Cloudy with Light Rain 57 14 55 13 94 94 NNE 12 19 30.00 1016 2 3 0.00 0.00
7:47 am 07:47 Cloudy with Light Rain 57 14 55 13 94 94 NNE 12 19 30.00 1016 2 3 0.00 0.00
8:27 am 08:27 Cloudy with Mist and Fog 58 14.4 57 13.9 97 97 NNE 13 20 30.00 1016 3 5 0.01 0.25
8:52 am 08:52 Cloudy with Mist and Fog 58 14.4 57 13.9 97 97 N 12 19 29.99 1016 3 5 0.01 0.25
9:09 am 09:09 Cloudy with Light Rain 58 14.4 57 13.9 97 97 NNE 10 17 30.00 1016 2 3 0.00 0.03
9:18 am 09:18 Cloudy with Light Rain 57 14 57 14 100 100 NNE 13 20 29.97 1015 2 2 0.00 0.00
9:40 am 09:40 Cloudy with Light Rain 57 14 57 14 100 100 N 10 17 29.97 1015 2 3 0.00 0.00
9:46 am 09:46 Cloudy with Light Rain 59 15 57 14 94 94 N 9 15 29.97 1015 2 3 0.00 0.00
9:52 am 09:52 Cloudy with Light Rain 59 15 58 14.4 96 96 NNE 10 17 29.97 1015 2 3 0.00 0.03
10:15 am 10:15 Cloudy with Light Rain 59 15 57 13.9 93 93 N 13 20 29.97 1015 2 3 0.01 0.25
10:32 am 10:32 Cloudy with Light Rain 59 15 57 14 94 94 NNE 10 17 29.94 1014 3 5 0.00 0.00
10:52 am 10:52 Cloudy with Light Rain 60 15.6 58 14.4 93 93 NNE 7 11 29.95 1014 3 5 0.05 1.27
11:24 am 11:24 Cloudy with Drizzle 61 16 59 15 94 94 NE 10 17 29.91 1013 2 3 0.00 0.00
11:37 am 11:37 Cloudy with Drizzle 60 15.6 59 15 96 96 NE 9 15 29.91 1013 3 4 0.00 0.03
11:47 am 11:47 Cloudy with Drizzle 61 16 59 15 94 94 NNE 13 20 29.91 1013 3 5 0.00 0.03
11:52 am 11:52 Cloudy with Drizzle 60 15.6 59 15 96 96 NNE 10 17 29.90 1013 3 5 0.00 0.03
12:45 pm 12:45 Cloudy with Drizzle 61 16.1 60 15.6 97 97 NNE 8 13 29.88 1012 2 3 0.00 0.03
12:52 pm 12:52 Cloudy with Drizzle 61 16.1 60 15.6 97 97 N 7 11 29.87 1011 2 3 0.00 0.03
1:52 pm 13:52 Cloudy with Drizzle 61 16.1 60 15.6 97 97 NNW 8 13 29.86 1011 1 2 0.02 0.51
2:52 pm 14:52 Cloudy with Drizzle 58 14.4 57 13.9 97 97 NW 14 22 29.85 1011 2 2 0.01 0.25
3:04 pm 15:04 Cloudy with Drizzle 57 14 55 13 94 94 NW 15 24 29.83 1010 3 4 0.00 0.00
3:30 pm 15:30 Cloudy with Drizzle 57 14 55 13 94 94 NW 15 24 29.85 1011 4 6 0.00 0.00
3:32 pm 15:32 Cloudy with Drizzle 57 14 55 13 94 94 NW 14 22 29.85 1011 4 6 0.00 0.00
3:44 pm 15:44 Cloudy 55 13 54 12 94 94 NW 17 28 29.85 1011 7 11 0.00 0.00
3:52 pm 15:52 Cloudy 56 13.3 53 11.7 90 90 NW 18 30 29.85 1011 10 16 0.00 0.03
4:30 pm 16:30 Cloudy with Drizzle 55 13 52 11 88 88 NW 17 28 29.85 1011 3 5 0.00 0.00
4:38 pm 16:38 Cloudy with Drizzle 55 13 54 12 94 94 NW 18 30 29.85 1011 3 4 0.00 0.00
4:52 pm 16:52 Cloudy with Drizzle 55 12.8 53 11.7 93 93 NW 16 26 29.84 1011 3 4 0.00 0.03
5:00 pm 17:00 Cloudy with Drizzle 55 13 54 12 94 94 NW 13 20 29.83 1010 3 4 0.00 0.00
5:20 pm 17:20 Cloudy with Drizzle 55 13 54 12 94 94 NW 13 20 29.83 1010 4 6 0.00 0.00
5:36 pm 17:36 Cloudy 55 13 54 12 94 94 NW 10 17 29.85 1011 7 11 0.00 0.00
5:52 pm 17:52 Cloudy 56 13.3 54 12.2 93 93 NW 14 22 29.85 1011 10 16 0.00 0.03
6:24 pm 18:24 Cloudy 55 13 54 12 94 94 NNW 13 20 29.85 1011 10 16 0.00 0.00
6:52 pm 18:52 Cloudy with Light Rain 56 13.3 53 11.7 90 90 NNW 13 20 29.85 1011 10 16 0.00 0.03
7:07 pm 19:07 Cloudy 56 13.3 53 11.7 90 90 NW 10 17 29.85 1011 10 16 0.00 0.03
7:52 pm 19:52 Cloudy with Light Rain 56 13.3 53 11.7 90 90 NNW 9 15 29.85 1011 10 16 0.00 0.03
8:08 pm 20:08 Cloudy 55 13 54 12 94 94 NW 9 15 29.85 1011 10 16 0.00 0.00
8:42 pm 20:42 Partly Cloudy 55 13 52 11 88 88 NNW 12 19 29.85 1011 10 16 0.00 0.00
8:52 pm 20:52 Partly Cloudy 56 13.3 51 10.6 84 84 NNW 10 17 29.85 1011 10 16 0.00 0.03
9:52 pm 21:52 Mostly Cloudy 56 13.3 50 10 81 81 NW 15 24 29.85 1011 10 16 0.00 0.00
10:52 pm 22:52 Cloudy 57 13.9 50 10 78 78 NW 13 20 29.85 1011 10 16 0.00 0.00
11:52 pm 23:52 Cloudy 56 13.3 47 8.3 72 72 NW 17 28 29.85 1011 10 16 0.00 0.00

Powered by AerisWeather